Location: *
(48.8667°N, 2.3331°E)
Time: 21:16:58
(UTC+00:00)

COSMOS 2455 - Pass Details

Date: 09 April 2020
Orbit: 900 x 910 km, 67.1° (Epoch: 22 May)

Event Time Altitude Azimuth Distance (km) Brightness Sun altitude
Rises 20:00:28 0° 323° (NW) 3,547 7.3 -14.0°
Reaches altitude 10° 20:02:59 10° 321° (NW) 2,602 6.4 -14.3°
Maximum altitude 20:08:58 66° 241° (WSW) 994 3.2 -15.2°
Enters shadow 20:13:56 15° 162° (SSE) 2,232 4.4 -15.9°
